Location: Barrio Pajares
(40.5500°N, 4.1667°W)
Time: 14:14:42
(UTC+00:00)

Cosmos 2218 Rocket - Pass Details

Date: 18 April 2024
Orbit: 955 x 1006 km, 82.9° (Epoch: 23 May)

Event Time Altitude Azimuth Distance (km) Brightness Sun altitude
Rises 19:16:57 0° 355° (N) 3,742 7.4 -4.0°
Reaches altitude 10° 19:19:32 10° 359° (N) 2,785 6.7 -4.5°
Maximum altitude 19:25:53 64° 80° (E) 1,097 4.1 -5.6°
Drops below altitude 10° 19:32:08 10° 162° (SSE) 2,740 6.0 -6.7°
Sets 19:34:39 0° 165° (SSE) 3,678 6.7 -7.2°
